Theta_e
333 332 331 325 323 324 324 324 324 322 315 311 312 311 311 306 301 303 301 299 299 298
335 333 332 330 328 323 325 320 316 313 311 310 310 305 304 300 302 300 298 299 299 297
332 330 330 328 325 324 323 318 313 311 310 305 303 301 302 301 298 297 298 297 296 298
328 326 325 324 322 322 322 319 314 311 303 302 301 302 302 298 296 295 295 296 298 299
326 324 322 321 321 320 314 309 306 303 302 302 301 300 297 295 296 295 295 298 300 300
322 321 313 308 306 304 303 302 301 302 301 301 298 296 296 296 296 297 299 300 300 300
311 308 305 303 302 301 301 301 301 301 298 298 297 296 296 297 298 299 299 301 300 299
306 305 304 303 302 302 302 301 299 298 297 297 297 297 297 298 297 298 298 300 300 300
305 303 303 302 300 300 299 299 298 298 297 296 297 293 293 294 295 297 298 298 299 300
305 304 304 304 302 300 300 298 296 295 295 296 298 293 293 292 298 297 297 297 297 297
305 303 303 302 302 300 297 296 297 297 298 299 300 295 293 290 295 295 295 296 296 297
304 302 302 300 299 300 298 298 299 300 299 298 298 292 290 290 293 293 293 294 294 294
303 302 301 300 300 300 301 298 298 296 296 291 294 289 289 290 292 290 291 291 292 290
300 299 300 299 298 297 296 295 295 294 295 295 293 292 288 287 287 287 285 286 287 289
Wind_Speed
17 12 11 7 9 10 8 9 10 10 9 4 4 6 5 8 4 7 2 4 4 3
14 14 12 13 13 7 7 5 7 9 8 7 7 7 8 5 6 4 4 3 4 5
11 10 8 6 12 9 9 9 11 12 10 9 10 10 9 6 6 4 2 3 5 10
9 9 7 7 6 8 10 10 10 9 9 8 10 8 7 7 6 5 5 7 11 14
9 7 6 6 5 3 4 6 9 10 9 11 10 8 10 7 4 5 7 11 13 12
7 6 7 8 8 9 9 9 9 9 7 7 8 9 7 7 7 9 11 12 12 11
9 8 8 8 8 8 8 9 9 9 10 9 8 7 7 7 8 11 12 11 12 11
9 9 9 8 8 8 8 9 9 9 8 7 6 5 5 6 9 8 11 12 12 13
10 11 10 11 11 10 10 10 10 9 6 5 3 6 8 8 7 11 13 14 13 14
13 12 13 13 12 11 11 9 7 6 4 4 6 8 10 9 10 11 12 13 14 14
13 13 12 12 11 10 7 7 6 5 5 7 8 10 8 6 9 11 14 15 16 16
12 12 11 11 9 7 6 5 5 7 6 3 4 8 1 5 9 11 14 14 16 17
10 10 8 7 6 7 7 4 1 2 3 4 5 13 10 9 7 11 10 14 16 17
9 8 7 6 5 4 4 2 2 1 3 5 5 5 11 11 8 9 10 11 11 11
Wind_Direction
218 220 218 186 177 211 198 207 196 203 196 197 231 217 144 143 130 167 145 118 254 333
217 219 222 203 212 199 213 148 162 172 175 183 207 122 130 119 153 122 151 190 193 250
209 214 221 202 214 202 195 186 177 175 184 152 141 129 145 147 113 133 168 202 225 242
188 195 220 211 213 220 216 203 188 162 127 121 117 143 158 151 138 170 193 229 240 247
181 182 199 201 200 184 91 99 126 129 133 144 151 150 136 139 168 217 241 246 252 250
132 155 93 91 95 102 110 112 116 128 142 138 129 143 149 168 195 226 244 252 255 251
90 91 94 100 105 111 120 130 140 125 125 138 146 145 175 198 232 248 251 260 260 261
94 96 104 111 118 114 116 114 117 121 121 129 149 176 202 228 251 272 278 267 262 254
105 105 112 110 111 114 112 119 124 129 135 132 169 208 227 246 270 268 267 269 275 268
123 119 121 119 116 114 124 129 120 117 133 190 232 222 228 236 267 273 276 279 283 284
118 117 120 124 116 113 120 129 142 173 214 245 250 215 217 215 278 280 279 281 282 282
118 119 118 117 127 128 144 177 198 215 218 270 322 129 121 322 306 298 298 298 296 295
121 120 117 126 152 178 187 160 97 351 344 53 296 82 60 15 324 315 311 308 307 311
115 144 145 124 115 124 111 77 77 281 341 327 6 27 59 35 343 333 326 311 306 302